Location: Barbiano
(44.6667°N, 10.2333°E)
Time: 14:59:02
(UTC+00:00)

Daily predictions for brighter satellites

Satellite Brightness Start Highest point End
(mag) Time Altitude Azimuth Time Altitude Azimuth Time Altitude Azimuth
Cosmos 909 Rocket 4.1 18:33:40 10° SSW 18:39:53 56° ESE 18:46:07 10° NE
Cosmos 405 Rocket 3.8 18:38:28 10° N 18:42:00 29° ENE 18:45:26 10° SE
Cosmos 2237 Rocket 3.0 18:38:10 10° N 18:43:19 35° NE 18:48:25 10° ESE
Helios 1A Rocket 3.1 18:41:07 10° SSE 18:45:11 82° WSW 18:49:20 10° NNW
Cosmos 1818 3.6 18:41:00 10° SSW 18:46:26 82° ESE 18:51:56 10° NE
DMSP B5D2-2 4.1 18:43:38 10° NNE 18:48:54 82° ESE 18:54:10 10° SSW
H-2A R/B 4.1 18:45:05 10° SSW 18:49:22 28° W 18:53:37 10° NW
Cosmos 1892 3.6 18:49:36 10° NNW 18:53:17 51° W 18:56:59 10° S
Cosmos 1825 2.1 18:51:08 10° N 18:54:55 70° E 18:58:40 10° SSE
MetOp-A 4.2 18:52:06 10° SSE 18:57:27 89° ENE 19:02:51 10° NNW
Cosmos 2227 Rocket 3.1 18:53:22 10° SSE 18:57:56 26° ESE 19:02:30 10° NE
Exosat Rocket 3.7 18:52:12 10° NNW 18:58:29 79° ENE 19:03:31 10° SSE
Abrixas rocket 2.1 18:57:32 10° W 18:58:59 31° NNW 19:00:27 10° NE
ATLAS 2AS CENTAUR R/B 3.8 18:52:26 10° WSW 19:00:11 57° NW 19:07:49 10° NNE
BREEZE-M DEB (TANK) 4.1 18:57:37 10° W 19:00:33 64° NNW 19:07:49 10° ENE
Cosmos 1092 Rocket 4.1 18:55:41 10° N 19:01:57 82° W 19:08:07 10° S
Cosmos 2297 Rocket 2.7 18:59:18 10° S 19:04:26 37° ESE 19:09:36 10° NE
Cosmos 2058 2.9 19:00:21 10° N 19:04:33 84° E 19:08:42 10° S
FALCON 9 DEB 3.6 19:03:05 10° SSW 19:05:51 31° SE 19:08:37 10° ENE
Cosmos 405 4.5 19:03:14 10° SSW 19:06:31 40° WNW 19:09:50 10° N
Cosmos 1633 3.9 19:04:14 10° NNE 19:07:10 23° ENE 19:09:15 15° ESE
Lacrosse 5 rocket 4.0 19:05:13 10° NW 19:07:45 15° N 19:10:21 10° NE
FALCON 9 DEB 3.1 19:07:37 10° SSW 19:10:30 43° SE 19:13:24 10° ENE
Resurs 01 Rocket 2.5 19:08:36 13° SE 19:12:02 32° ENE 19:16:01 10° N
Cosmos 2219 3.6 19:08:24 10° S 19:13:34 39° ESE 19:18:45 10° NE
Resurs 1-3 3.8 19:09:25 10° SSE 19:13:41 55° ENE 19:17:59 10° N
Genesis I 4.2 19:11:16 10° NNW 19:14:57 34° NE 19:17:40 16° ESE
BREEZE-M DEB (TANK) 3.9 19:12:03 10° W 19:15:49 64° N 19:28:47 10° ENE
Cosmos 2333 Rocket 3.6 19:11:54 10° NW 19:17:11 38° WSW 19:22:24 10° S
SJ-6B 2.9 19:13:58 10° S 19:17:40 72° WSW 19:21:27 10° NNW
Cosmos 2084 Rocket 3.7 19:18:09 10° S 19:21:49 38° ESE 19:25:34 10° NE
Cosmos 389 Rocket 2.4 19:18:45 10° S 19:22:14 71° E 19:25:49 10° NNE
Cosmos 1190 Rocket 4.4 19:17:33 10° S 19:22:23 39° ESE 19:27:13 10° NE
FALCON 9 DEB 2.7 19:19:34 10° SW 19:22:33 61° SE 19:25:34 10° ENE
ERS-2 4.0 19:20:10 10° N 19:23:30 34° WNW 19:26:47 10° SW
Ariane Rocket 2.9 19:19:00 10° SSE 19:24:03 83° ENE 19:29:08 10° NNW
Cosmos 614 Rocket 4.1 19:20:46 10° SSW 19:25:54 80° WNW 19:31:01 10° NNE
Cosmos 2251 Rocket 4.3 19:22:26 10° SW 19:27:42 58° WNW 19:32:59 10° NNE
ATLAS 3B R/B 3.3 19:24:57 10° NW 19:31:51 57° WSW 19:38:59 10° SSE
Cosmos 2279 Rocket 3.9 19:26:12 10° S 19:32:23 82° E 19:38:36 10° N
SPOT 1/Viking Rocket 4.4 19:33:39 20° ESE 19:36:31 34° ENE 19:41:12 10° N
MOS 1 4.4 19:31:46 10° S 19:37:24 76° WSW 19:43:05 10° NNW
Cosmos-2242 3.4 19:35:48 18° SSE 19:38:34 41° E 19:42:38 10° NNE
Cosmos 1980 3.7 19:34:04 10° NNW 19:39:47 87° WSW 19:44:11 17° SSE
USA 215 4.0 19:34:16 12° E 19:39:57 44° NNE 19:46:05 10° NW
SL-16 R/B 3.1 19:35:08 10° NNW 19:40:22 36° NE 19:43:26 21° ESE
Cosmos 2151 3.1 19:37:25 10° N 19:41:42 59° E 19:44:10 24° SSE
SPOT 3 Rocket 3.6 19:40:39 19° SSE 19:44:19 66° ENE 19:49:28 10° N
FALCON 9 DEB 2.6 19:41:17 10° SW 19:44:21 81° SE 19:46:41 16° ENE
COSMOS 2455 3.3 19:42:13 10° S 19:47:42 38° ESE 19:53:12 10° NE
SL-4 R/B 2.1 19:46:56 10° SW 19:51:16 77° SSE 19:55:56 10° ENE
Cosmos 2219 Rocket 4.3 19:49:41 10° NW 19:54:00 23° W 19:58:18 10° SSW
BREEZE M DEB (TANK) 3.8 19:51:05 10° SSW 19:54:25 47° SE 20:03:51 10° ENE
ERS-1 Rocket 4.2 19:53:53 22° E 19:55:28 26° ENE 19:59:33 10° N
IGS 5A 3.4 19:54:21 29° SSE 19:56:23 76° ENE 20:00:33 10° N
OBJECT-B 3.3 19:55:15 10° SW 19:57:40 20° W 20:00:07 10° NW
Landsat 7 3.8 19:55:13 27° SSE 19:57:46 70° ENE 20:02:31 10° N
Cosmos 1076 Rocket 4.4 19:53:40 10° NNW 19:57:51 49° W 20:01:45 11° SSW
Cosmos 2266 Rocket 4.0 19:52:11 10° N 19:58:34 70° E 20:02:36 23° SSE
ATLAS 5 CENTAUR R/B 3.6 19:59:01 10° WSW 20:00:09 13° SW 20:01:00 12° SSW
Timation 1 Rocket 4.5 19:57:02 10° S 20:02:43 49° ESE 20:08:26 10° NE
Cosmos 2221 4.3 20:05:05 17° ENE 20:05:05 17° ENE 20:07:01 10° NE
ARIANE 5 R/B 3.2 20:04:04 34° ESE 20:05:07 39° ENE 20:09:13 10° N
Cosmos 2344 4.4 19:58:38 10° WSW 20:05:50 51° NW 20:13:41 10° NE
USA 245 3.3 20:05:59 44° E 20:06:09 44° ENE 20:09:07 10° N
Cosmos 407 Rocket 3.8 20:01:24 10° SSW 20:06:29 66° WNW 20:11:40 10° NNE
MetOp-B 4.1 20:09:17 29° SSE 20:12:09 87° ENE 20:17:32 10° NNW
Meteor 2-3 Rocket 3.7 20:08:47 10° NNW 20:14:34 86° W 20:17:47 27° S
Meteor 1-27 4.2 20:14:09 21° S 20:18:09 76° E 20:23:59 10° NNE
Cosmos 44 Rocket 3.4 20:13:14 10° SSW 20:18:11 58° ESE 20:23:17 10° NE
Cosmos 1140 Rocket 4.0 20:14:45 10° SW 20:19:47 57° WNW 20:24:52 10° NNE
Cosmos 1954 Rocket 3.8 20:19:29 15° SSW 20:23:49 83° ESE 20:29:00 10° NNE
CZ-2C R/B 3.7 20:20:47 10° N 20:25:13 79° WNW 20:27:43 26° SSW
Timation 2 Rocket 4.3 20:20:17 10° SW 20:26:51 70° WNW 20:33:10 10° NNE
Cosmos 2237 Rocket 3.3 20:22:12 10° NW 20:27:24 39° WSW 20:30:47 20° SSW
Cosmos 2263 Rocket 3.6 20:34:38 21° ENE 20:34:38 21° ENE 20:37:19 10° NE
Spot 2 Rocket 3.4 20:32:07 49° SSE 20:33:31 82° ENE 20:38:37 10° NNW
CARTOSAT-1 3.5 20:33:27 64° ESE 20:33:50 68° ENE 20:38:08 10° N
BREEZE M DEB (TANK) 3.3 20:28:42 10° W 20:35:24 49° NNW 20:36:34 31° NE
Cosmos 1766 Rocket 3.4 20:31:24 10° N 20:35:46 88° W 20:36:22 66° S
FALCON 9 DEB 4.4 20:38:45 10° W 20:41:37 35° NNW 20:41:38 35° NNW
Cosmos 2227 Rocket 3.0 20:36:09 10° SW 20:41:39 51° WNW 20:47:10 10° NNE
Cosmos 2082 3.6 20:37:15 17° SSW 20:41:40 89° E 20:47:20 10° NNE
Okean 3 Rocket 3.7 20:40:25 10° NNW 20:44:56 72° W 20:45:39 59° SSW
Lacrosse 5 rocket 3.5 20:44:50 10° NNW 20:48:13 22° NNE 20:49:58 18° NE
Cosmos 2297 Rocket 3.7 20:43:17 10° WSW 20:48:28 37° NW 20:53:42 10° NNE
Cosmos 1869 3.7 20:47:58 53° WSW 20:48:29 58° W 20:52:23 10° N
Resurs 01 Rocket 3.4 20:46:10 17° SW 20:48:32 26° W 20:52:18 10° NW
Cosmos 1553 Rocket 4.2 20:48:26 44° ESE 20:48:52 45° E 20:54:38 10° NNE
Meteor 1-4 Rocket 3.2 20:50:31 51° NW 20:50:31 51° NW 20:53:39 10° N
Cosmos 468 Rocket 3.8 20:46:03 10° NNW 20:51:12 78° ENE 20:51:46 68° SE
Cosmos 841 Rocket 4.1 20:51:04 10° N 20:56:00 41° ENE 20:56:15 40° ENE
Terra 1.8 21:03:52 70° ENE 21:03:52 70° ENE 21:08:29 10° N
Cosmos 1763 Rocket 3.2 20:58:57 10° NNW 21:04:02 86° WSW 21:04:17 81° S
Cosmos 540 Rocket 3.6 21:06:44 10° NNW 21:11:41 61° ENE 21:11:41 61° ENE
Cosmos 921 Rocket 4.1 21:09:03 10° N 21:12:21 36° NE 21:12:21 36° NE
SPOT 5 2.9 21:14:08 66° W 21:14:08 66° W 21:18:53 10° NNW
Meteor 2-2 Rocket 4.2 21:15:41 64° SSW 21:16:38 83° W 21:22:22 10° N
NOSS 3-1 (C) 4.0 21:10:25 10° NW 21:18:00 86° NE 21:20:23 53° SE
Cosmos 1842 Rocket 4.0 21:20:26 62° NNW 21:20:26 62° NNW 21:24:21 10° N
USA 215 3.1 21:21:36 63° SSE 21:22:41 77° SW 21:29:16 10° NW
SL-16 R/B 3.1 21:19:16 10° NW 21:24:30 38° WSW 21:25:19 36° SW
SL-08 ROCKET BODY 4.2 21:25:09 10° N 21:31:13 83° W 21:31:36 77° SSW
SL-4 R/B 3.5 21:26:58 10° W 21:31:17 41° NNW 21:33:32 25° NE
COSMOS 2455 4.0 21:27:55 10° WSW 21:33:35 42° NW 21:39:17 10° NNE
ERS-1 Rocket 3.7 21:33:53 43° WSW 21:34:01 43° W 21:38:49 10° NNW
Cosmos 2227 4.3 21:40:45 67° NE 21:40:45 67° NE 21:45:46 10° NNE
Cosmos 2221 3.8 21:41:54 38° NW 21:41:54 38° NW 21:45:23 10° N
Sich 1 4.5 21:38:59 10° N 21:41:28 32° NNE 21:41:28 32° NNE
Cosmos 1943 3.2 21:44:58 10° NNW 21:50:06 74° NNW 21:50:06 74° NNW
Cosmos 1745 Rocket 3.9 21:47:00 10° N 21:53:20 82° W 21:53:25 81° WSW
SeaSat 1 3.9 21:48:52 10° NE 21:51:18 28° NE 21:51:18 28° NE
Cosmos 1570 Rocket 4.3 21:48:49 10° NNW 21:53:15 63° NNW 21:53:15 63° NNW
Cosmos 1709 Rocket 4.1 21:52:21 10° N 21:58:09 64° ENE 21:58:09 64° ENE
S3M 4.1 22:05:25 68° WSW 22:05:44 70° W 22:12:09 10° N
Cosmos 2263 Rocket 2.8 22:16:15 50° WNW 22:16:25 50° WNW 22:21:52 10° NNE
USA 229 DEB 4.1 22:19:57 10° NW 22:27:01 58° WSW 22:27:01 58° WSW
USA 229 4.1 22:20:03 10° NW 22:27:07 58° WSW 22:27:07 58° WSW
Lacrosse 5 rocket 3.5 22:23:36 10° NW 22:25:35 26° NW 22:25:35 26° NW
Cosmos 1844 Rocket 4.1 22:30:56 29° NE 22:30:56 29° NE 22:33:52 10° NE
ALOS 2 4.3 22:35:37 30° N 22:35:37 30° N 22:37:56 10° N
Terra 4.3 22:42:44 13° WNW 22:42:44 13° WNW 22:44:21 10° WNW
NOSS 3-1 (A) 4.4 22:37:45 10° NW 22:45:03 52° WSW 22:45:03 52° WSW
Cosmos 2154 Rocket 4.5 22:58:29 10° N 23:04:10 53° ENE 23:04:10 53° ENE
SJ 16-02 4.2 23:17:22 10° ENE 23:17:22 10° ENE 23:17:30 10° ENE
Cosmos 2184 Rocket 4.2 23:09:32 10° N 23:14:58 67° NNW 23:14:58 67° NNW
Cosmos 2278 Rocket 4.2 23:19:29 18° ENE 23:19:29 18° ENE 23:21:46 10° NE
ATLAS 5 CENTAUR R/B 3.5 23:20:34 10° NNW 23:25:36 36° NE 23:27:06 31° ENE
SeaSat 1 4.2 23:26:56 10° N 23:30:57 25° NW 23:31:05 25° NW
Cosmos 1844 4.3 23:41:40 53° NNW 23:41:40 53° NNW 23:46:22 10° NNE
USA 281 3.2 23:43:08 77° NE 23:43:08 77° NE 23:49:36 10° NNW
COSMOS 2406 4.1 23:39:29 10° NNW 23:44:52 42° ENE 23:44:55 42° ENE
Gbstr 26 Del rocket 4.3 23:53:47 55° ENE 23:53:47 55° ENE 23:58:01 10° ENE
